FW6665 Weather Reports


Display with metric or nautical units.
time (UTC)temp
F
wind
direction
speed
MPH
gust
MPH
rain 1hr
in
rain 24hr
in
rain mn
in
humidity
%
barometer
mb
20260506001705 51 299 1.0 2.0 0.00 0.00 0.00 79 1010.4
20260506001204 51 317 0.0 4.0 0.00 0.00 0.00 80 1010.4
20260506000707 51 316 0.0 4.0 0.00 0.00 0.00 80 1010.4
20260506000205 51 316 1.0 4.0 0.00 0.00 0.00 79 1010.5
20260505235704 51 317 1.0 3.0 0.00 0.00 0.00 79 1010.5
20260505235205 51 317 0.0 4.0 0.00 0.00 0.00 79 1010.5
20260505234708 51 317 0.0 4.0 0.00 0.00 0.00 79 1010.3
20260505234205 51 320 0.0 5.0 0.00 0.00 0.00 79 1010.3
20260505233705 51 320 0.0 5.0 0.00 0.00 0.00 79 1010.4
20260505233214 51 320 0.0 5.0 0.00 0.00 0.00 79 1010.4
20260505232704 51 306 1.0 3.0 0.00 0.00 0.00 79 1010.4
20260505232206 51 312 1.0 3.0 0.00 0.00 0.00 79 1010.4
20260505231705 52 313 0.0 3.0 0.00 0.00 0.00 79 1010.5
20260505230704 52 313 0.0 3.0 0.00 0.00 0.00 79 1010.5
20260505230209 52 313 0.0 4.0 0.00 0.00 0.00 80 1010.4
20260505225703 52 313 0.0 4.0 0.00 0.00 0.00 80 1010.4
20260505225205 52 313 1.0 2.0 0.00 0.00 0.00 80 1010.4
20260505224704 52 316 0.0 5.0 0.00 0.00 0.00 80 1010.4
20260505224205 52 316 0.0 5.0 0.00 0.00 0.00 80 1010.4
20260505222704 52 110 1.0 3.0 0.00 0.00 0.00 82 1010.5
20260505222204 52 135 1.0 2.0 0.00 0.00 0.00 82 1010.3
20260505221204 53 116 0.0 1.0 0.00 0.00 0.00 82 1010.4
20260505220704 53 116 0.0 3.0 0.00 0.00 0.00 81 1010.4
20260505220205 53 116 0.0 3.0 0.00 0.00 0.00 81 1010.4
20260505215716 53 116 0.0 3.0 0.00 0.00 0.00 80 1010.3
20260505214704 54 116 0.0 2.0 0.00 0.00 0.00 78 1010.3
20260505214214 54 121 1.0 1.0 0.00 0.00 0.00 76 1010.3
20260505213705 53 111 0.0 1.0 0.00 0.00 0.00 74 1010.3
20260505213204 53 111 0.0 1.0 0.00 0.00 0.00 73 1010.3
20260505212704 54 111 0.0 1.0 0.00 0.00 0.00 73 1010.2
20260505212236 54 111 0.0 1.0 0.00 0.00 0.00 73 1010.2
20260505211704 54 111 0.0 1.0 0.00 0.00 0.00 72 1010.1
20260505211204 54 111 0.0 1.0 0.00 0.00 0.00 72 1010.1
20260505210706 54 111 0.0 2.0 0.00 0.00 0.00 72 1010.2
20260505205704 54 111 0.0 2.0 0.00 0.00 0.00 71 1010.1
20260505205204 54 111 0.0 2.0 0.00 0.00 0.00 71 1010.2
20260505204709 54 111 0.0 2.0 0.00 0.00 0.00 70 1010.3
20260505204205 54 111 0.0 1.0 0.00 0.00 0.00 71 1010.1
20260505203704 54 111 0.0 2.0 0.00 0.00 0.00 71 1010.1
20260505203204 55 111 0.0 2.0 0.00 0.00 0.00 71 1010.0
20260505202704 55 111 0.0 2.0 0.00 0.00 0.00 72 1010.0
20260505202205 55 111 0.0 2.0 0.00 0.00 0.00 72 1010.0
20260505201204 55 111 0.0 1.0 0.00 0.00 0.00 71 1009.9
20260505200705 55 111 0.0 1.0 0.00 0.00 0.00 71 1009.9
20260505200204 55 111 0.0 3.0 0.00 0.00 0.00 71 1009.8
20260505195705 55 111 0.0 3.0 0.00 0.00 0.00 70 1009.8
20260505195205 55 111 0.0 3.0 0.00 0.00 0.00 70 1009.7
20260505194704 56 111 0.0 3.0 0.00 0.00 0.00 69 1009.6
20260505194204 56 111 0.0 3.0 0.00 0.00 0.00 69 1009.5
20260505193704 56 111 0.0 3.0 0.00 0.00 0.00 69 1009.4
20260505193204 56 111 0.0 1.0 0.00 0.00 0.00 68 1009.3
20260505192704 56 111 0.0 2.0 0.00 0.00 0.00 68 1009.3
20260505192205 56 111 0.0 2.0 0.00 0.00 0.00 68 1009.3
20260505191204 56 111 0.0 1.0 0.00 0.00 0.00 67 1009.0
20260505190704 56 111 0.0 1.0 0.00 0.00 0.00 66 1009.0
20260505190204 56 111 0.0 1.0 0.00 0.00 0.00 66 1008.9
20260505185707 57 111 0.0 2.0 0.00 0.00 0.00 66 1009.1
20260505185205 57 111 0.0 2.0 0.00 0.00 0.00 66 1008.9
20260505184706 57 111 0.0 2.0 0.00 0.00 0.00 65 1008.9
20260505184205 57 111 0.0 2.0 0.00 0.00 0.00 65 1008.8
20260505183204 57 111 0.0 1.0 0.00 0.00 0.00 64 1008.7
20260505182704 58 111 0.0 1.0 0.00 0.00 0.00 63 1008.8
20260505181704 58 111 0.0 1.0 0.00 0.00 0.00 63 1008.7
20260505181204 58 111 0.0 1.0 0.00 0.00 0.00 62 1008.8
20260505180705 58 111 0.0 1.0 0.00 0.00 0.00 61 1008.8
20260505174704 58 111 0.0 3.0 0.00 0.00 0.00 60 1008.9
20260505174205 58 111 0.0 3.0 0.00 0.00 0.00 59 1008.8
20260505173705 58 111 0.0 2.0 0.00 0.00 0.00 59 1008.8
20260505173203 58 111 0.0 2.0 0.00 0.00 0.00 58 1008.8
20260505172704 58 111 0.0 2.0 0.00 0.00 0.00 58 1008.8
20260505172205 59 111 0.0 2.0 0.00 0.00 0.00 57 1008.9
20260505171704 59 111 0.0 2.0 0.00 0.00 0.00 56 1008.8
20260505171205 59 111 0.0 2.0 0.00 0.00 0.00 56 1008.9
20260505170704 59 111 1.0 2.0 0.00 0.00 0.00 57 1008.9
20260505170204 59 113 0.0 2.0 0.00 0.00 0.00 57 1008.9
20260505165727 59 113 0.0 2.0 0.00 0.00 0.00 58 1009.0
20260505165204 59 113 1.0 2.0 0.00 0.00 0.00 57 1009.1
20260505164704 59 110 0.0 2.0 0.00 0.00 0.00 57 1009.1
20260505164204 59 110 0.0 2.0 0.00 0.00 0.00 56 1008.9
20260505163209 60 113 0.0 3.0 0.00 0.00 0.00 56 1008.9
20260505162704 60 113 0.0 3.0 0.00 0.00 0.00 56 1008.9
20260505162204 60 113 0.0 3.0 0.00 0.00 0.00 56 1008.9
20260505161729 60 113 0.0 7.0 0.00 0.00 0.00 56 1008.9
20260505160705 61 111 0.0 7.0 0.00 0.00 0.00 55 1008.9
20260505160204 61 110 2.0 4.0 0.00 0.00 0.00 53 1008.9
20260505153231 62 154 1.0 2.0 0.00 0.00 0.00 56 1008.9
20260505152704 61 155 0.0 3.0 0.00 0.00 0.00 57 1009.1
20260505152215 61 155 1.0 3.0 0.00 0.00 0.00 55 1009.1
20260505151705 61 157 1.0 2.0 0.00 0.00 0.00 55 1009.0
20260505151204 61 161 1.0 3.0 0.00 0.00 0.00 54 1009.1
20260505150704 62 161 1.0 3.0 0.00 0.00 0.00 54 1009.1
20260505150203 62 157 0.0 4.0 0.00 0.00 0.00 55 1009.1
20260505140205 62 125 0.0 5.0 0.00 0.00 0.00 55 1009.2
20260505130205 63 127 0.0 5.0 0.00 0.00 0.00 54 1009.5
20260505124704 63 138 1.0 3.0 0.00 0.00 0.00 54 1009.5
20260505124205 63 258 1.0 3.0 0.00 0.00 0.00 55 1009.5
20260505123704 63 255 0.0 3.0 0.00 0.00 0.00 54 1009.5
20260505123204 63 257 0.0 2.0 0.00 0.00 0.00 56 1009.5
20260505122705 63 258 0.0 2.0 0.00 0.00 0.00 56 1009.5
20260505122205 63 259 0.0 2.0 0.00 0.00 0.00 56 1009.5
20260505121706 63 258 1.0 2.0 0.00 0.00 0.00 56 1009.6
20260505121204 63 259 1.0 2.0 0.00 0.00 0.00 57 1009.5
20260505120704 63 259 1.0 3.0 0.00 0.00 0.00 56 1009.5
20260505120204 64 259 0.0 3.0 0.00 0.00 0.00 56 1009.4
20260505115704 63 259 0.0 3.0 0.00 0.00 0.00 56 1009.5
20260505115204 63 247 1.0 5.0 0.00 0.00 0.00 57 1009.6
20260505114704 63 247 0.0 5.0 0.00 0.00 0.00 56 1009.5
20260505114205 64 275 1.0 5.0 0.00 0.00 0.00 56 1009.6
20260505113705 64 292 2.0 4.0 0.00 0.00 0.00 56 1009.5
20260505111704 63 288 2.0 4.0 0.00 0.00 0.00 60 1009.7
20260505111204 62 285 2.0 4.0 0.00 0.00 0.00 59 1009.8
20260505110704 62 303 0.0 5.0 0.00 0.00 0.00 61 1009.7
20260505110204 62 303 1.0 6.0 0.00 0.00 0.00 62 1009.8
20260505102205 61 292 1.0 5.0 0.00 0.00 0.00 66 1010.1
20260505101711 60 290 1.0 5.0 0.00 0.00 0.00 66 1010.1
20260505101204 60 295 2.0 9.0 0.00 0.00 0.00 67 1010.2
20260505100704 60 269 2.0 9.0 0.00 0.00 0.00 68 1010.2
20260505100204 59 228 1.0 9.0 0.00 0.00 0.00 69 1010.2
20260505095704 60 238 2.0 6.0 0.00 0.00 0.00 68 1010.3
20260505095204 60 234 2.0 6.0 0.00 0.00 0.00 67 1010.2
20260505094704 60 271 2.0 6.0 0.00 0.00 0.00 67 1010.3
20260505094205 60 286 2.0 4.0 0.00 0.00 0.00 68 1010.3
20260505093704 60 295 2.0 4.0 0.00 0.00 0.00 69 1010.3
20260505093204 60 292 1.0 4.0 0.00 0.00 0.00 71 1010.3
20260505092705 59 288 1.0 4.0 0.00 0.00 0.00 71 1010.3
20260505092204 59 298 1.0 3.0 0.00 0.00 0.00 72 1010.3
20260505091704 58 300 1.0 3.0 0.00 0.00 0.00 74 1010.5
20260505091204 57 299 0.0 3.0 0.00 0.00 0.00 74 1010.4
20260505090204 57 298 1.0 2.0 0.00 0.00 0.00 73 1010.5
20260505085704 57 299 1.0 2.0 0.00 0.00 0.00 75 1010.5
20260505085205 56 299 1.0 2.0 0.00 0.00 0.00 75 1010.6
20260505084704 56 299 1.0 2.0 0.00 0.00 0.00 76 1010.6
20260505084210 56 300 1.0 3.0 0.00 0.00 0.00 77 1010.7
20260505083205 55 302 0.0 4.0 0.00 0.00 0.00 78 1010.6
20260505082705 55 303 0.0 4.0 0.00 0.00 0.00 79 1010.6
20260505082204 55 302 0.0 3.0 0.00 0.00 0.00 79 1010.7
20260505081704 55 302 1.0 4.0 0.00 0.00 0.00 79 1010.7
20260505081204 55 303 1.0 4.0 0.00 0.00 0.00 79 1010.6
20260505080705 55 303 1.0 4.0 0.00 0.00 0.00 78 1010.7
20260505080205 55 309 1.0 3.0 0.00 0.00 0.00 79 1010.6
20260505075705 55 305 0.0 3.0 0.00 0.00 0.00 79 1010.6
20260505075205 55 299 1.0 3.0 0.00 0.00 0.00 80 1010.6
20260505074704 55 299 0.0 3.0 0.00 0.00 0.00 81 1010.6
20260505074204 55 299 0.0 3.0 0.00 0.00 0.00 81 1010.6
20260505073705 55 299 1.0 3.0 0.00 0.00 0.00 81 1010.5
20260505073204 54 299 1.0 3.0 0.00 0.00 0.00 82 1010.5
20260505072205 54 299 1.0 3.0 0.00 0.00 0.00 82 1010.6
20260505071706 54 300 1.0 3.0 0.00 0.00 0.00 83 1010.6
20260505071204 54 300 0.0 4.0 0.00 0.00 0.00 83 1010.7
20260505070704 53 300 0.0 4.0 0.00 0.00 0.00 83 1010.8
20260505070214 53 300 1.0 4.0 0.00 0.00 0.00 84 1010.7
20260505065703 53 300 1.0 4.0 0.00 0.00 0.00 83 1010.8
20260505065204 53 288 1.0 4.0 0.00 0.00 0.00 84 1010.8
20260505064705 53 286 1.0 2.0 0.00 0.00 0.00 83 1010.8
20260505063704 52 288 0.0 3.0 0.00 0.00 0.00 83 1010.7
20260505062703 52 288 0.0 2.0 0.00 0.00 0.00 83 1010.8
20260505062205 52 288 0.0 2.0 0.00 0.00 0.00 82 1010.8
20260505061704 52 288 0.0 1.0 0.00 0.00 0.00 82 1010.9
20260505061204 52 288 0.0 1.0 0.00 0.00 0.00 82 1010.8
20260505060704 52 288 0.0 1.0 0.00 0.00 0.00 82 1010.7
20260505055205 52 288 0.0 1.0 0.00 0.00 0.00 82 1010.8
20260505054204 52 288 0.0 1.0 0.00 0.00 0.00 82 1010.7
20260505053205 52 288 0.0 1.0 0.00 0.00 0.00 82 1010.8
20260505052704 52 288 0.0 1.0 0.00 0.00 0.00 82 1010.8
20260505052205 52 288 0.0 2.0 0.00 0.00 0.00 82 1010.9
20260505051704 52 288 0.0 2.0 0.00 0.00 0.00 82 1010.8
20260505051205 52 288 0.0 2.0 0.00 0.00 0.00 82 1010.9
20260505050705 52 288 0.0 1.0 0.00 0.00 0.00 82 1010.9
20260505041704 52 288 0.0 1.0 0.00 0.00 0.00 81 1010.9
20260505041204 52 288 0.0 1.0 0.00 0.00 0.00 81 1010.8
20260505040706 52 288 0.0 1.0 0.00 0.00 0.00 81 1010.8
20260505035705 52 288 0.0 1.0 0.00 0.00 0.00 81 1010.9
20260505035204 52 288 0.0 1.0 0.00 0.00 0.00 81 1010.9
20260505034704 52 288 0.0 1.0 0.00 0.00 0.00 81 1010.9
20260505034205 52 288 0.0 1.0 0.00 0.00 0.00 81 1010.8
20260505033705 52 288 0.0 1.0 0.00 0.00 0.00 81 1010.8
20260505033205 52 288 0.0 1.0 0.00 0.00 0.00 80 1010.9
20260505032704 52 288 0.0 1.0 0.00 0.00 0.00 80 1011.0
20260505032204 52 288 0.0 1.0 0.00 0.00 0.00 80 1011.0
20260505031704 52 288 0.0 1.0 0.00 0.00 0.00 80 1011.0
20260505030204 52 288 0.0 1.0 0.00 0.00 0.00 80 1011.0
20260505025705 52 288 0.0 1.0 0.00 0.00 0.00 80 1011.2
20260505025205 52 288 0.0 1.0 0.00 0.00 0.00 80 1011.1
20260505024704 52 289 0.0 1.0 0.00 0.00 0.00 80 1011.1
20260505024211 53 289 0.0 1.0 0.00 0.00 0.00 79 1011.1
20260505023205 53 289 0.0 1.0 0.00 0.00 0.00 79 1011.2
20260505022731 53 289 0.0 1.0 0.00 0.00 0.00 79 1011.2
20260505022204 53 289 0.0 2.0 0.00 0.00 0.00 79 1011.2
20260505021704 53 289 0.0 2.0 0.00 0.00 0.00 79 1011.1
20260505021204 53 289 0.0 2.0 0.00 0.00 0.00 79 1011.2
20260505020704 53 290 0.0 1.0 0.00 0.00 0.00 79 1011.2
20260505015704 53 290 0.0 1.0 0.00 0.00 0.00 79 1011.1
20260505015205 53 290 0.0 1.0 0.00 0.00 0.00 79 1011.1
20260505014704 53 290 0.0 1.0 0.00 0.00 0.00 79 1011.1
20260505014205 53 290 0.0 1.0 0.00 0.00 0.00 79 1011.1
20260505013704 53 290 0.0 1.0 0.00 0.00 0.00 79 1011.2
20260505013207 53 290 0.0 2.0 0.00 0.00 0.00 79 1011.3
20260505011704 53 290 0.0 1.0 0.00 0.00 0.00 80 1011.6
20260505011204 53 290 0.0 1.0 0.00 0.00 0.00 80 1011.7
20260505010704 53 290 0.0 1.0 0.00 0.00 0.00 80 1011.8
20260505010205 53 290 0.0 1.0 0.00 0.00 0.00 80 1011.7
20260505005204 53 290 0.0 2.0 0.00 0.00 0.00 80 1011.8
20260505004704 53 290 0.0 2.0 0.00 0.00 0.00 80 1011.7
20260505004205 53 290 0.0 1.0 0.00 0.00 0.00 80 1011.7
20260505003705 53 290 0.0 1.0 0.00 0.00 0.00 81 1011.7
20260505003204 53 290 0.0 2.0 0.00 0.00 0.00 81 1011.7
20260505002705 53 290 0.0 2.0 0.00 0.00 0.00 81 1011.7
20260505002205 53 290 0.0 2.0 0.00 0.00 0.00 81 1011.8